Location: Cheyres
(46.8153°N, 6.7877°E)
Time: 11:51:10
(UTC+00:00)

Gbstr 26 Del rocket - Pass Details

Date: 23 September 2021
Orbit: 492 x 1263 km, 51.8° (Epoch: 18 October)

Event Time Altitude Azimuth Distance (km) Brightness Sun altitude
Exits shadow 01:18:12 63° 37° (NE) 1,337 4.7 -37.2°
Drops below altitude 10° 01:24:57 10° 94° (E) 2,977 6.8 -36.5°
Sets 01:27:32 0° 97° (E) 3,839 7.5 -36.2°
